Regional Weather Roundup
Issued by NWS

Home | Current Version | Previous Version | Graphics & Text | Print | Product List | Glossary On
Versions: 1 2 3 4 5 6 7 8 9 10 11 12 13 14 15 16 17 18 19 20 21 22 23 24 25 26 27 28 29 30 31 32 33 34 35 36 37 38 39 40 41 42 43 44 45 46 47 48 49 50
000
ASUS43 KDTX 202201
RWRMI
MICHIGAN HOURLY REGIONAL WEATHER ROUNDUP
NATIONAL WEATHER SERVICE DETROIT/PONTIAC MI
600 PM EDT FRI APR 20 2018

NOTE: "FAIR" INDICATES FEW OR NO CLOUDS BELOW 12,000 FEET WITH NO
SIGNIFICANT WEATHER AND/OR OBSTRUCTION TO VISIBILITY.

MIZ047>049-052>055-059>063-066>070-074>076-081>083-202300-
SOUTHEAST LOWER MICHIGAN

CITY           SKY/WX    TMP DP  RH WIND       PRES   REMARKS
ADRIAN         FAIR      58  19  22 N5        30.43S
ALMA           FAIR      57  21  24 CALM      30.43S
ANN ARBOR      FAIR      58  17  20 NW12      30.43S
BAD AXE        FAIR      51  14  22 N7        30.46S
CARO           FAIR      53  20  27 N8        30.44S
DETROIT CITY   FAIR      53  23  31 E9        30.44R
DETROIT        FAIR      58  17  20 NE9       30.43S
GROSSE ILE     FAIR      47  31  52 S8        30.44R
HILLSDALE      FAIR      55  14  19 NE5       30.42S
HOWELL         FAIR      54  18  24 N6        30.43S

CITY           SKY/WX    TMP DP  RH WIND       PRES   REMARKS
JACKSON        FAIR      57  14  18 NW5       30.43S
LAMBERTVILLE   FAIR      59  13  16 N5        30.42S
LANSING        FAIR      57  20  23 N8        30.44S
LAPEER         FAIR      52  13  21 N8        30.45S
MASON          FAIR      57  13  17 N6        30.43S
MONROE         FAIR      53  24  32 S10       30.43R
PONTIAC        FAIR      54  17  23 NW12      30.43S
PORT HOPE        N/A     39  26  59 E5        30.46
PORT HURON     FAIR      45  25  45 NE10      30.47S
TRI CITIES     FAIR      59  21  23 NW7       30.43S
MIDLAND        FAIR      56  22  26 CALM      30.41F
TROY           FAIR      56  17  21 NW6       30.45R
SAGINAW HB     FAIR      55  19  24 CALM      30.42F
$$
MIZ043>046-050>051-056>058-064>065-071>073-077>080-202300-
SOUTHWEST LOWER MICHIGAN

CITY           SKY/WX    TMP DP  RH WIND       PRES   REMARKS
BATTLE CREEK   FAIR      59  21  23 VRB3      30.43S
BENTON HARBOR  FAIR      50  13  22 VRB7      30.47F
BIG RAPIDS     FAIR      56   5  13 NW7       30.42S
COLDWATER      FAIR      58  19  22 NW5       30.43S
HOLLAND        FAIR      50  17  27 NW9       30.47S
GRAND RAPIDS   PTSUNNY   58  26  29 W17       30.43S
IONIA          FAIR      58  18  21 N8        30.42S
KALAMAZOO      FAIR      60  18  19 N6        30.43F
LUDINGTON      FAIR      47  16  28 W8        30.47F
MARSHALL       FAIR      58  13  17 NE5       30.43S
MOUNT PLEASANT FAIR      58  22  25 N3        30.42S
MUSKEGON       FAIR      51  14  22 NW8       30.47F
SOUTH HAVEN    FAIR      50  13  23 NW9       30.47F
$$
MIZ016>042-202300-
NORTHERN LOWER MICHIGAN

CITY           SKY/WX    TMP DP  RH WIND       PRES   REMARKS
ALPENA         FAIR      46  19  34 E7        30.44F
BEAVER ISLAND  FAIR      47  10  22 SW8       30.45S
BELLAIRE       FAIR      50   9  19 NW5       30.46S
CADILLAC       FAIR      51  14  23 NW6       30.42S
CHARLEVOIX     FAIR      45  19  35 W9        30.49S
FRANKFORT      FAIR      47  16  29 W6        30.47S
GAYLORD        FAIR      49  15  25 NW5       30.43S
GRAYLING       FAIR      48  17  29 N8        30.42F
HARBOR SPRINGS FAIR      40  24  52 SW5       30.45F
HOUGHTON LAKE  FAIR      54  15  21 N7        30.43S
MANISTEE       FAIR      49  15  25 W12       30.48R
OSCODA         FAIR      42  19  40 E6        30.45F
PELLSTON       FAIR      49  16  26 NW6       30.44F
ROGERS CITY    FAIR      45  12  27 CALM      30.45S
TRAVERSE CITY  PTSUNNY   47  23  38 NE7       30.45S
$$
MIZ007>008-015-202300-
EASTERN UPPER MICHIGAN

CITY           SKY/WX    TMP DP  RH WIND       PRES   REMARKS
KINROSS        FAIR      48  15  26 N12       30.42F
MACKINAC ISLAN FAIR      45  18  34 W7        30.44S
NEWBERRY       FAIR      48  17  28 CALM      30.41S
S. S. MARIE    FAIR      52  18  26 NW8       30.42F
MUNISING         N/A     43  26  51 CALM      30.42F
$$
MIZ004>006-011>014-085-202300-
CENTRAL UPPER MICHIGAN

CITY           SKY/WX    TMP DP  RH WIND       PRES   REMARKS
MANISTIQUE     FAIR      42  19  39 S15       30.44S
ESCANABA       FAIR      48  17  29 S13       30.42F
MENOMINEE      FAIR      52  19  27 SW10      30.43F
SAWYER-GWINN   SUNNY     48  12  23 NE12      30.40F
$$
MIZ001>003-009>011-084-202300-
WESTERN UPPER MICHIGAN

CITY           SKY/WX    TMP DP  RH WIND       PRES   REMARKS
IRON MOUNTAIN  FAIR      60  13  15 CALM      30.36F
HOUGHTON       FAIR      54  12  18 CALM      30.38F
COPPER HARBOR    N/A     43  25  49 CALM      30.41F
IRONWOOD       FAIR      55  14  19 CALM      30.38F
$$

ABBREVIATIONS USED IN REMARKS
   TC - TEMPERATURE IN CELSIUS
  WCI - WIND CHILL INDEX
   HX - HEAT INDEX
  VSB - VISIBILITY





USA.gov is the U.S. government's official web portal to all federal, state and local government web resources and services.